Weather History for KGOV - May, 2013

Nearest airport to NA, NA.

See history from more local stations
Change the Weather History Date:

Wednesday, May 1, 2013

  Actual Average (KHTL) Record (KHTL)
Temperature  
Mean Temperature 72 °F 49 °F  
Max Temperature 86 °F 61 °F 85 °F (1942)
Min Temperature 59 °F 37 °F 20 °F (1943)
Degree Days  
Heating Degree Days 0 16  
Month to date heating degree days 16  
Since 1 July heating degree days 7677  
Cooling Degree Days 8 0  
Month to date cooling degree days 0  
Year to date cooling degree days 2  
Growing Degree Days 22 (Base 50)    
Moisture  
Dew Point 54 °F    
Average Humidity 58    
Maximum Humidity 88    
Minimum Humidity 28    
Precipitation  
Precipitation 0.00 in 0.08 in 0.65 in (1970)
Month to date precipitation 0.08  
Year to date precipitation 7.12  
Snow  
Snow 0.00 in 0.00 in 0.40 in (1984)
Month to date snowfall 0.0  
Since 1 July snowfall 66.5  
Snow Depth -    
Sea Level Pressure  
Sea Level Pressure 30.12 in    
Wind  
Wind Speed 8 mph (SSW)    
Max Wind Speed 14 mph    
Max Gust Speed 22 mph    
Visibility 10 miles    
Events      
T = Trace of Precipitation, MM = Missing Value Source: NWS Daily Summary

Daily Weather History Graph

Daily Weather History Graph

Search for Another Location

Airport or City:

Trip Planner

Search our weather history database for the weather conditions in past years. The results will help you decide how hot, cold, wet, or windy it might be!

Date:

Astronomy

May. 01, 2013 Rise Set
Actual Time 6:28 AM EDT 8:44 PM EDT
Civil Twilight 5:56 AM EDT 9:16 PM EDT
Nautical Twilight 5:16 AM EDT 9:56 PM EDT
Astronomical Twilight 4:32 AM EDT 10:41 PM EDT
Moon 1:53 AM EDT (5/1) 12:06 PM EDT (5/1)
Length of Visible Light 15h 19m
Length of Day
14h 15m
Waning Gibbous, 59% of the Moon is Illuminated
May 1
Waning Gibbous
May 2
Last Quarter
May 9
New
May 18
First Quarter
May 25
Full

Hourly Weather History & Observations

Time (EDT) Temp. Dew Point Humidity Pressure Visibility Wind Dir Wind Speed Gust Speed Precip Events Conditions
12:15 AM 66.2 °F 57.4 °F 73% 29.97 in 10.0 mi South 9.2 mph 17.3 mph N/A   Clear
12:35 AM 66.2 °F 57.7 °F 74% 29.98 in 10.0 mi South 10.4 mph 19.6 mph N/A   Clear
12:54 AM 66.2 °F 57.9 °F 75% 29.98 in 10.0 mi South 10.4 mph 16.1 mph N/A   Clear
1:15 AM 66.2 °F 58.1 °F 75% 29.99 in 10.0 mi South 8.1 mph - N/A   Clear
1:35 AM 64.4 °F 56.8 °F 76% 29.99 in 10.0 mi South 9.2 mph - N/A   Clear
1:54 AM 64.8 °F 57.2 °F 76% 30.00 in 10.0 mi South 8.1 mph 18.4 mph N/A   Clear
2:15 AM 63.9 °F 56.5 °F 77% 30.00 in 10.0 mi South 8.1 mph 16.1 mph N/A   Clear
2:34 AM 63.5 °F 56.7 °F 78% 30.01 in 10.0 mi South 4.6 mph - N/A   Clear
2:55 AM 63.3 °F 56.8 °F 79% 30.02 in 10.0 mi South 6.9 mph - N/A   Clear
3:15 AM 62.2 °F 56.7 °F 82% 30.03 in 10.0 mi SSW 5.8 mph - N/A   Clear
3:34 AM 61.7 °F 56.3 °F 82% 30.04 in 10.0 mi South 4.6 mph - N/A   Clear
4:15 AM 61.0 °F 56.8 °F 86% 30.04 in 10.0 mi South 3.5 mph - N/A   Clear
4:34 AM 61.0 °F 57.0 °F 87% 30.04 in 10.0 mi South 3.5 mph - N/A   Clear
4:55 AM 61.2 °F 57.0 °F 86% 30.05 in 10.0 mi Calm Calm - N/A   Clear
5:15 AM 61.0 °F 56.8 °F 86% 30.05 in 10.0 mi Calm Calm - N/A   Clear
5:34 AM 61.0 °F 57.2 °F 87% 30.05 in 10.0 mi South 3.5 mph - N/A   Clear
6:15 AM 60.3 °F 56.8 °F 88% 30.06 in 10.0 mi SSW 3.5 mph - N/A   Clear
6:35 AM 61.0 °F 57.0 °F 87% 30.08 in 10.0 mi Calm Calm - N/A   Clear
6:55 AM 59.9 °F 56.5 °F 88% 30.09 in 10.0 mi South 4.6 mph - N/A   Clear
7:15 AM 61.0 °F 56.7 °F 86% 30.10 in 10.0 mi South 5.8 mph - N/A   Clear
7:35 AM 61.0 °F 56.7 °F 86% 30.10 in 10.0 mi South 5.8 mph - N/A   Clear
7:55 AM 62.2 °F 57.0 °F 83% 30.11 in 10.0 mi South 5.8 mph - N/A   Clear
8:15 AM 64.2 °F 57.2 °F 78% 30.11 in 10.0 mi SSE 5.8 mph - N/A   Clear
8:35 AM 68.5 °F 59.2 °F 72% 30.11 in 10.0 mi South 5.8 mph - N/A   Clear
9:14 AM 69.6 °F 57.2 °F 65% 30.12 in 10.0 mi South 6.9 mph - N/A   Clear
9:35 AM 73.6 °F 58.8 °F 60% 30.12 in 10.0 mi SSW 5.8 mph - N/A   Clear
9:55 AM 73.6 °F 56.8 °F 56% 30.12 in 10.0 mi SSW 9.2 mph - N/A   Clear
10:15 AM 75.2 °F 56.3 °F 52% 30.12 in 10.0 mi SW 8.1 mph - N/A   Clear
10:35 AM 76.1 °F 54.9 °F 48% 30.12 in 10.0 mi SSW 9.2 mph 17.3 mph N/A   Clear
10:55 AM 77.4 °F 53.4 °F 43% 30.13 in 10.0 mi SW 11.5 mph 18.4 mph N/A   Clear
11:14 AM 78.8 °F 52.5 °F 40% 30.13 in 10.0 mi SSW 11.5 mph 16.1 mph N/A   Clear
11:35 AM 78.8 °F 52.2 °F 39% 30.14 in 10.0 mi SSW 9.2 mph 18.4 mph N/A   Clear
12:14 PM 79.9 °F 50.4 °F 36% 30.14 in 10.0 mi SW 13.8 mph 18.4 mph N/A   Clear
12:35 PM 81.5 °F 50.2 °F 34% 30.14 in 10.0 mi SSW 10.4 mph 17.3 mph N/A   Clear
12:55 PM 81.3 °F 50.0 °F 33% 30.14 in 10.0 mi South 11.5 mph 18.4 mph N/A   Clear
1:14 PM 82.4 °F 48.0 °F 30% 30.14 in 10.0 mi SW 12.7 mph 19.6 mph N/A   Clear
1:35 PM 82.6 °F 48.9 °F 31% 30.14 in 10.0 mi SSW 10.4 mph - N/A   Clear
2:14 PM 83.7 °F 47.3 °F 28% 30.14 in 10.0 mi SW 10.4 mph 20.7 mph N/A   Clear
2:35 PM 84.2 °F 47.7 °F 28% 30.14 in 10.0 mi SSE 6.9 mph 17.3 mph N/A   Clear
2:55 PM 86.0 °F 49.1 °F 28% 30.14 in 10.0 mi South 13.8 mph 17.3 mph N/A   Scattered Clouds
3:15 PM 82.0 °F 47.3 °F 30% 30.14 in 10.0 mi SSW 6.9 mph 17.3 mph N/A   Scattered Clouds
3:35 PM 83.5 °F 48.4 °F 29% 30.14 in 10.0 mi South 10.4 mph 20.7 mph N/A   Scattered Clouds
3:55 PM 86.2 °F 50.4 °F 29% 30.14 in 10.0 mi South 10.4 mph 18.4 mph N/A   Scattered Clouds
4:15 PM 82.6 °F 49.3 °F 31% 30.14 in 10.0 mi SE 12.7 mph 17.3 mph N/A   Mostly Cloudy
4:35 PM 86.0 °F 51.6 °F 31% 30.14 in 10.0 mi SSE 13.8 mph 21.9 mph N/A   Scattered Clouds
4:55 PM 83.8 °F 50.0 °F 31% 30.14 in 10.0 mi South 13.8 mph 19.6 mph N/A   Scattered Clouds
5:14 PM 82.9 °F 49.1 °F 31% 30.14 in 10.0 mi SSE 8.1 mph 19.6 mph N/A   Scattered Clouds
5:35 PM 82.6 °F 49.1 °F 31% 30.14 in 10.0 mi South 9.2 mph - N/A   Scattered Clouds
6:15 PM 81.7 °F 49.6 °F 33% 30.15 in 10.0 mi South 9.2 mph 17.3 mph N/A   Clear
6:35 PM 79.9 °F 49.8 °F 35% 30.15 in 10.0 mi SSE 11.5 mph - N/A   Scattered Clouds
6:55 PM 79.5 °F 50.4 °F 36% 30.15 in 10.0 mi South 12.7 mph 16.1 mph N/A   Clear
7:15 PM 78.8 °F 50.4 °F 37% 30.16 in 10.0 mi South 8.1 mph - N/A   Clear
7:35 PM 78.8 °F 50.5 °F 37% 30.16 in 10.0 mi South 4.6 mph - N/A   Scattered Clouds
7:54 PM 78.8 °F 51.6 °F 39% 30.17 in 10.0 mi SW 5.8 mph - N/A   Mostly Cloudy
8:15 PM 76.1 °F 54.5 °F 47% 30.18 in 10.0 mi WNW 6.9 mph - N/A   Scattered Clouds
8:34 PM 73.6 °F 55.4 °F 53% 30.19 in 10.0 mi West 5.8 mph - N/A   Clear
8:55 PM 71.1 °F 55.0 °F 57% 30.20 in 10.0 mi WNW 5.8 mph - N/A   Clear
9:15 PM 68.5 °F 54.0 °F 60% 30.21 in 10.0 mi WSW 4.6 mph - N/A   Scattered Clouds
9:34 PM 68.5 °F 55.2 °F 62% 30.22 in 10.0 mi WSW 4.6 mph - N/A   Mostly Cloudy
9:55 PM 68.5 °F 56.3 °F 65% 30.23 in 10.0 mi West 3.5 mph - N/A   Scattered Clouds
10:34 PM 65.1 °F 55.2 °F 70% 30.24 in 10.0 mi NNW 3.5 mph - N/A   Scattered Clouds
10:55 PM 63.5 °F 54.0 °F 71% 30.25 in 10.0 mi NNW 6.9 mph - N/A   Clear
11:15 PM 63.5 °F 52.5 °F 67% 30.25 in 10.0 mi North 9.2 mph - N/A   Mostly Cloudy
11:34 PM 62.2 °F 50.9 °F 66% 30.25 in 10.0 mi North 5.8 mph - N/A   Mostly Cloudy
11:55 PM 60.6 °F 50.4 °F 69% 30.25 in 10.0 mi NE 4.6 mph - N/A   Mostly Cloudy